Location: Unspecified
(0.0000°N, 0.0000°E)
Time: 23:29:34
(UTC+00:00)

Vanguard 1 Rocket - Visible Passes

Search period start: 12 December 2018 00:00
Search period end: 22 December 2018 00:00
Orbit: 650 x 4226 km, 34.3° (Epoch: 11 December)

Date Brightness Start Highest point End Pass type
(mag) Time Alt. Az. Time Alt. Az. Time Alt. Az.
12 Dec 10.2 01:45:02 38° ENE 01:45:02 38° ENE 01:59:05 10° ESE visible
12 Dec 9.8 04:02:20 35° WNW 04:10:50 71° SW 04:35:47 10° SE visible
13 Dec 11.1 00:37:56 13° E 00:37:56 13° E 00:39:57 10° E visible
13 Dec 9.3 02:55:13 74° NNW 02:57:03 83° NE 03:19:35 10° SE visible
13 Dec 10.7 05:13:11 10° W 05:29:18 44° SSW 05:53:25 10° SE visible
14 Dec 9.9 01:48:05 46° E 01:48:05 46° E 02:02:33 10° ESE visible
14 Dec 9.9 04:05:23 32° W 04:13:55 59° SSW 04:37:59 10° SE visible
15 Dec 10.9 00:40:56 17° E 00:40:56 17° E 00:44:35 10° E visible
15 Dec 9.2 02:58:13 74° W 02:59:53 80° SW 03:22:03 10° SE visible
15 Dec 10.8 05:17:24 10° W 05:33:00 36° SSW 05:55:41 10° SE visible
16 Dec 9.8 01:51:02 53° E 01:51:02 53° E 02:05:36 10° ESE visible
16 Dec 10.1 04:08:19 26° W 04:17:16 48° SSW 04:40:06 10° SE visible
17 Dec 10.8 00:43:50 20° E 00:43:50 20° E 00:48:34 10° ESE visible
17 Dec 9.3 03:01:07 61° WSW 03:02:56 65° SSW 03:24:19 10° SE visible
17 Dec 10.9 05:22:00 10° WSW 05:37:01 30° SSW 05:58:07 10° SE visible
18 Dec 9.7 01:53:53 56° SE 01:53:53 56° SE 02:08:19 10° SE visible
18 Dec 10.3 04:11:10 20° WSW 04:20:55 38° SSW 04:42:12 10° SE visible
19 Dec 10.7 00:46:38 23° ESE 00:46:38 23° ESE 00:52:02 10° ESE visible
19 Dec 9.6 03:03:54 48° SW 03:06:15 51° SSW 03:26:26 10° SE visible
19 Dec 11.0 05:26:57 10° WSW 05:41:22 26° SSW 06:00:52 10° SE visible
20 Dec 9.6 01:56:37 54° SSE 01:56:37 54° SSE 02:10:46 10° SE visible
20 Dec 10.5 04:13:53 14° WSW 04:24:49 31° SSW 04:44:22 10° SE visible
21 Dec 10.6 00:49:19 25° ESE 00:49:19 25° ESE 00:55:06 10° ESE visible
21 Dec 9.9 03:06:35 36° SW 03:09:48 40° SSW 03:28:28 10° SE visible
21 Dec 11.2 05:32:07 10° SW 05:46:01 23° S 06:04:05 10° SE visible
